Weather History for Chios, Greece

Change the Weather History Date:

Saturday, April 28, 2012

  Actual Average (LTBL) Record (LTBL)
Temperature  
Mean Temperature 60 °F -  
Max Temperature 68 °F 73 °F 82 °F (2001)
Min Temperature 51 °F 50 °F 48 °F (1999)
Degree Days  
Heating Degree Days 6    
Growing Degree Days 10 (Base 50)    
Moisture  
Dew Point 55 °F    
Average Humidity 75    
Maximum Humidity 88    
Minimum Humidity 64    
Precipitation  
Precipitation 0.00 in - - ()
Sea Level Pressure  
Sea Level Pressure 30.00 in    
Wind  
Wind Speed 3 mph ()    
Max Wind Speed 9 mph    
Max Gust Speed -    
Visibility 6.2 miles    
Events      
Averages and records for this station are not official NWS values.
T = Trace of Precipitation, MM = Missing Value Source: Averaged Metar Reports

Daily Weather History Graph

Daily Weather History Graph

Search for Another Location

Airport:

Trip Planner

Search our weather history database for the weather conditions in past years. The results will help you decide how hot, cold, wet, or windy it might be!

Date:

Astronomy

Apr. 28, 2012 Rise Set
Actual Time 6:22 AM EEST 8:04 PM EEST
Civil Twilight 5:53 AM EEST 8:32 PM EEST
Nautical Twilight 5:19 AM EEST 9:06 PM EEST
Astronomical Twilight 4:43 AM EEST 9:43 PM EEST
Moon 11:42 AM EEST (4/28) 1:16 AM EEST (4/28)
Length of Visible Light 14h 38m
Length of Day
13h 42m
Waxing Crescent, 40% of the Moon is Illuminated
Apr 28
Waxing Crescent
Apr 29
First Quarter
May 6
Full
May 13
Last Quarter
May 21
New

Hourly Weather History & Observations

Time (EEST) Temp. Dew Point Humidity Pressure Visibility Wind Dir Wind Speed Gust Speed Precip Events Conditions
4:50 AM 57.2 °F 51.8 °F 82% 29.98 in - Variable 2.3 mph - N/A   Clear
5:50 AM 53.6 °F 50.0 °F 88% 29.98 in - Variable 1.2 mph - N/A   Clear
6:50 AM 51.8 °F 48.2 °F 88% 29.98 in - Variable 2.3 mph - N/A   Clear
7:50 AM 57.2 °F 51.8 °F 82% 29.98 in - Variable 1.2 mph - N/A   Clear
8:50 AM 62.6 °F 55.4 °F 77% 30.01 in 6.2 mi NE 3.5 mph - N/A   Partly Cloudy
9:50 AM 62.6 °F 55.4 °F 77% 30.01 in 6.2 mi NNE 9.2 mph - N/A   Partly Cloudy
10:50 AM 64.4 °F 55.4 °F 73% 30.01 in 6.2 mi NE 8.1 mph - N/A   Partly Cloudy
11:50 AM 66.2 °F 57.2 °F 73% 30.01 in 6.2 mi ENE 4.6 mph - N/A   Partly Cloudy
12:50 PM 68.0 °F 57.2 °F 68% 30.01 in 6.2 mi ENE 4.6 mph - N/A   Partly Cloudy
1:50 PM 68.0 °F 57.2 °F 68% 30.01 in 6.2 mi ENE 8.1 mph - N/A   Partly Cloudy
2:50 PM 68.0 °F 55.4 °F 64% 30.01 in 6.2 mi NE 4.6 mph - N/A   Partly Cloudy
3:50 PM 68.0 °F 55.4 °F 64% 30.01 in 6.2 mi NE 6.9 mph - N/A   Partly Cloudy
4:50 PM 68.0 °F 57.2 °F 68% 30.01 in 6.2 mi NNE 6.9 mph - N/A   Partly Cloudy
5:50 PM 68.0 °F 55.4 °F 64% 30.01 in - NNE 5.8 mph - N/A   Clear
6:50 PM 66.2 °F 53.6 °F 64% 30.01 in - NNE 4.6 mph - N/A   Clear
7:50 PM 64.4 °F 57.2 °F 77% 30.01 in - Calm Calm - N/A   Clear
8:50 PM 64.4 °F 57.2 °F 77% 30.01 in - Calm Calm - N/A   Clear
9:50 PM 60.8 °F 55.4 °F 82% 30.01 in - Calm Calm - N/A   Clear
10:20 PM 60.8 °F 53.6 °F 77% 30.01 in - South 2.3 mph - N/A   Clear
10:50 PM 59.0 °F 53.6 °F 82% 30.01 in - South 2.3 mph - N/A   Clear
11:50 PM 59.0 °F 55.4 °F 88% 30.01 in - West 1.2 mph - N/A   Clear